Track STARLINK-4048 now! 10-day predictions STARLINK-4048 is classified as:
1 52839U 22062K 22227.66667824 .00002581 00000-0 18024-3 0 9993 2 52839 53.2174 119.1213 0001917 40.2096 7.2334 15.08835244 9714